Wetbulb
45.49 44.91 44.53 44.26 43.89 43.46 43.02 42.73 42.98 42.71 42.33 41.90 41.67 41.37 40.86 39.85 38.91 38.42 38.19 38.01 37.35 36.83 36.47 36.18 35.78 35.56 35.23 34.94 34.53 34.27 34.07 34.11 34.19 34.58 34.95 35.00 34.60 34.41 34.27 33.86 33.53 33.40 33.24 33.35 33.38 33.14 32.82 32.65 32.21 31.87 31.69 31.77 31.63 31.42 31.24 31.08 31.04 30.84 30.65 30.44 30.34 30.23 30.04 29.82 29.79 29.82 29.93 29.92 29.84
45.61 45.23 44.86 44.67 44.40 43.78 43.20 42.86 42.86 42.63 42.33 41.88 41.61 41.42 41.05 40.12 39.06 38.43 38.16 38.01 37.64 37.31 36.98 36.61 36.54 36.03 35.42 35.02 34.65 34.21 33.80 33.72 33.69 34.01 34.36 34.45 34.36 34.23 34.06 33.57 33.28 33.04 32.93 32.85 32.80 32.60 32.38 32.26 31.91 31.57 31.29 31.30 30.95 30.68 30.63 30.96 30.88 30.48 30.20 30.10 30.10 30.05 29.82 29.56 29.67 29.76 29.80 29.71 29.69
45.69 45.39 44.84 44.33 43.85 43.38 42.78 42.31 42.20 42.16 42.16 41.90 41.61 41.24 40.75 40.08 39.10 38.50 38.05 37.93 38.00 37.78 37.34 36.83 36.83 36.47 35.93 35.28 34.72 34.21 33.77 33.51 33.29 33.32 33.57 33.72 33.93 34.00 33.83 33.38 33.03 32.95 32.85 32.63 32.36 32.30 32.18 32.16 31.96 31.74 31.23 30.49 30.23 29.99 30.10 30.45 30.59 30.21 29.72 29.75 29.85 29.76 29.54 29.26 29.51 29.70 29.58 29.44 29.44
45.88 45.39 44.77 44.12 43.87 43.39 42.85 42.28 42.08 41.98 41.82 41.59 41.42 41.00 40.51 39.81 39.10 38.50 38.12 38.18 37.99 37.62 37.26 36.86 36.89 36.82 36.54 35.92 35.09 34.50 34.06 34.01 33.42 33.11 33.11 33.22 33.48 33.63 33.60 33.31 32.83 32.54 32.32 32.12 32.06 32.10 32.21 32.26 32.07 31.62 31.09 30.26 29.83 29.63 29.70 29.89 30.10 29.81 29.52 29.61 29.69 29.56 29.29 29.14 29.36 29.45 29.36 29.17 29.19
45.78 45.48 44.95 44.43 44.01 43.77 43.38 43.09 42.61 42.11 41.70 41.37 40.77 40.26 39.81 39.51 39.02 38.50 37.94 37.64 37.34 37.23 37.26 37.15 36.89 36.79 36.68 36.43 35.53 34.74 34.22 34.06 34.17 33.48 32.76 32.82 33.09 33.34 33.42 33.21 32.67 32.22 31.93 31.72 31.71 31.94 32.18 32.47 31.91 31.30 30.78 30.06 29.54 29.44 29.68 30.08 29.75 29.33 29.14 29.32 29.47 29.34 29.14 28.99 29.03 29.24 29.23 29.18 29.03
45.62 45.48 45.26 44.77 44.48 44.02 43.66 43.34 43.00 42.45 41.92 41.39 40.52 39.87 39.24 38.80 38.36 37.91 37.35 36.91 37.13 37.45 37.69 37.73 37.26 36.97 36.68 36.29 35.46 34.81 34.19 33.72 33.70 33.14 32.63 32.44 32.71 32.92 33.00 32.80 32.46 32.04 31.71 31.52 31.58 31.91 32.22 32.31 31.52 30.85 30.38 29.93 29.46 29.69 30.02 30.00 29.37 28.90 28.67 28.67 28.93 29.00 29.01 28.85 29.01 29.11 28.88 28.62 28.46
45.61 45.49 45.24 44.93 44.56 44.10 43.63 43.31 42.99 42.56 42.06 41.32 40.59 39.94 39.29 38.72 38.17 37.65 37.24 37.09 37.09 37.23 37.45 37.59 37.16 36.65 36.14 35.70 35.08 34.54 34.07 33.54 33.26 32.95 32.61 32.19 32.19 32.32 32.39 32.30 32.13 31.87 31.64 31.49 31.52 31.84 32.11 32.11 30.90 30.38 30.22 30.03 29.40 29.58 29.76 29.51 28.96 28.53 28.14 27.95 28.44 28.80 28.88 28.74 29.02 28.86 28.56 28.22 28.07
45.72 45.49 45.27 45.05 44.73 44.26 43.84 43.38 42.84 42.19 41.57 40.83 40.29 40.01 39.64 39.15 38.50 37.83 37.35 37.02 36.76 36.80 36.94 37.09 36.54 36.10 35.70 35.14 34.59 34.22 33.85 33.37 33.02 32.68 32.38 32.07 31.82 31.84 31.85 31.73 31.68 31.59 31.52 31.56 31.55 31.64 31.64 31.44 30.56 29.94 29.61 29.57 29.09 28.98 29.03 29.11 28.69 28.23 27.87 27.70 28.22 28.57 28.74 28.86 28.90 28.72 28.38 28.16 27.98
45.42 45.35 45.28 45.16 44.94 44.54 44.03 43.47 42.81 41.93 41.09 40.54 40.25 40.11 39.82 39.48 38.80 38.02 37.35 36.72 36.83 36.98 37.02 36.87 36.58 36.17 35.66 34.96 34.40 33.95 33.49 33.03 32.65 32.31 32.07 31.95 31.56 31.40 31.34 31.28 31.17 31.23 31.36 31.63 31.61 31.46 31.25 30.79 30.22 29.79 29.45 29.24 28.75 28.59 28.65 28.63 28.31 27.99 27.69 27.73 27.87 28.19 28.46 28.63 28.64 28.53 28.35 28.35 28.11
45.03 45.04 44.97 44.77 44.55 44.44 44.03 43.46 42.71 41.96 41.13 40.45 40.34 40.03 39.94 39.98 39.14 38.28 37.46 37.17 37.39 37.24 37.05 36.80 36.62 36.14 35.44 34.84 34.35 33.77 33.30 32.80 32.39 31.94 31.73 31.71 31.35 30.99 30.68 30.68 30.68 30.79 31.02 31.40 31.46 31.32 30.99 30.38 29.87 29.57 29.30 29.06 28.62 28.43 28.34 28.36 28.05 27.77 27.58 27.55 27.73 27.91 28.04 28.28 28.39 28.40 28.37 28.47 28.18
45.11 44.90 44.65 44.24 44.18 44.18 43.81 43.06 42.34 41.70 41.04 40.32 40.05 39.75 39.45 39.47 38.99 38.54 38.13 37.90 37.35 37.02 36.91 37.05 36.80 36.03 35.28 34.63 34.09 33.68 33.23 32.63 32.21 31.73 31.39 31.40 31.27 30.84 30.48 30.46 30.47 30.54 30.76 31.12 31.21 30.97 30.53 29.97 29.56 29.12 28.83 28.67 28.46 28.26 28.12 28.12 27.87 27.59 27.42 27.46 27.69 27.69 27.67 27.86 28.21 28.38 28.41 28.34 28.09
45.11 44.93 44.62 44.28 44.03 43.80 43.31 42.43 41.72 41.20 40.67 40.13 39.64 39.22 38.91 38.72 38.76 38.68 38.50 37.94 37.24 36.87 36.87 37.09 36.80 36.13 35.29 34.38 33.90 33.77 33.45 32.76 32.10 31.63 31.29 31.12 30.98 30.80 30.60 30.53 30.42 30.47 30.58 30.86 30.89 30.59 30.07 29.56 29.10 28.66 28.31 28.22 28.05 27.90 27.75 27.73 27.44 27.17 27.12 27.27 27.59 27.52 27.36 27.60 28.04 28.36 28.49 28.31 27.87
44.97 44.68 44.35 44.15 43.80 43.35 42.70 41.94 41.17 40.58 40.12 39.73 39.42 39.00 38.77 38.65 38.90 38.83 38.42 37.76 37.17 36.80 36.69 36.91 36.68 36.00 35.20 34.30 33.69 33.36 33.12 32.69 32.07 31.66 31.32 31.12 30.93 30.80 30.63 30.48 30.40 30.36 30.35 30.48 30.41 30.07 29.57 29.13 28.67 28.07 27.66 27.49 27.53 27.58 27.55 27.40 27.09 26.78 26.65 26.78 27.07 27.18 27.23 27.59 27.87 28.21 28.27 28.14 27.73
44.79 44.42 44.03 43.80 43.42 42.80 42.07 41.32 40.53 39.98 39.59 39.20 39.12 38.96 38.92 38.91 39.05 38.90 38.46 37.69 37.13 36.83 36.60 36.53 36.34 35.81 35.04 34.31 33.65 33.20 32.84 32.63 32.19 31.70 31.28 31.04 30.91 30.74 30.59 30.40 30.30 30.22 30.11 30.04 29.93 29.55 29.05 28.57 28.20 27.80 27.39 27.05 27.10 27.26 27.34 27.28 26.98 26.69 26.55 26.47 26.68 26.92 27.23 27.55 27.81 27.84 27.80 27.49 27.40
44.44 44.04 43.69 43.33 42.89 42.21 41.49 40.69 39.91 39.44 39.13 38.86 38.86 38.78 38.81 38.64 38.89 38.78 38.42 37.72 37.31 36.86 36.48 36.14 35.85 35.61 35.07 34.34 33.58 33.02 32.69 32.37 32.04 31.63 31.14 30.88 30.73 30.58 30.37 30.20 30.14 29.95 29.76 29.58 29.39 29.15 28.70 28.19 27.89 27.56 27.31 26.94 26.93 26.98 27.15 27.23 27.03 26.85 26.76 26.67 26.73 27.03 27.29 27.55 27.61 27.52 27.35 27.15 27.08
44.04 43.66 43.22 42.83 42.24 41.59 41.09 40.45 39.75 39.28 38.90 38.63 38.67 38.59 38.48 38.28 38.46 38.47 38.18 37.72 37.23 36.75 36.25 35.82 35.52 35.17 34.82 34.28 33.56 32.93 32.39 32.04 31.75 31.34 30.82 30.43 30.26 30.13 30.08 29.91 29.73 29.55 29.40 29.27 29.00 28.82 28.61 28.24 27.92 27.56 27.23 27.00 26.90 26.87 27.01 27.11 27.11 27.06 27.00 27.07 27.17 27.36 27.56 27.76 27.59 27.35 27.16 27.08 26.97
43.85 43.29 42.82 42.24 41.68 41.22 40.74 40.32 39.82 39.43 39.13 38.82 38.79 38.48 38.25 38.06 37.95 37.99 37.87 37.60 37.00 36.32 35.81 35.45 35.21 34.79 34.41 33.95 33.49 32.81 32.21 31.61 31.32 30.93 30.45 29.95 29.87 29.81 29.82 29.79 29.47 29.21 28.96 28.76 28.51 28.43 28.30 28.09 27.88 27.59 27.37 27.07 26.96 26.92 27.02 27.11 27.10 27.17 27.24 27.36 27.59 27.67 27.82 28.24 27.89 27.44 27.06 27.01 27.01
43.61 43.19 42.68 41.99 41.41 41.02 40.61 40.42 40.03 39.72 39.40 39.17 38.91 38.64 38.29 37.91 37.53 37.45 37.41 37.40 36.75 35.97 35.37 35.00 34.91 34.48 33.98 33.47 33.05 32.66 32.14 31.39 30.95 30.66 30.37 29.95 29.83 29.82 29.88 29.77 29.39 28.99 28.60 28.25 28.09 28.00 27.96 27.79 27.68 27.53 27.31 27.14 27.06 27.08 27.15 27.20 27.20 27.21 27.36 27.58 27.73 27.90 28.06 28.20 27.98 27.53 27.21 27.00 27.32
43.57 43.21 42.78 42.19 41.56 41.16 40.78 40.51 40.23 39.88 39.64 39.37 39.06 38.71 38.36 37.85 37.39 36.97 36.69 36.65 36.43 35.94 35.24 34.59 34.27 33.98 33.62 33.10 32.61 32.45 32.25 31.54 31.00 30.64 30.42 30.21 29.97 29.88 29.80 29.72 29.17 28.71 28.31 27.93 27.78 27.77 27.70 27.60 27.42 27.27 27.05 27.02 26.94 27.03 27.16 27.24 27.19 27.26 27.38 27.64 27.76 27.86 27.89 27.87 27.76 27.72 27.59 27.46 27.59
43.70 43.37 42.95 42.58 42.13 41.61 41.22 40.70 40.31 39.99 39.72 39.45 39.21 38.82 38.35 37.87 37.12 36.46 36.03 35.84 35.98 35.70 35.18 34.36 33.83 33.40 33.14 32.77 32.30 32.08 31.99 31.78 31.31 30.81 30.54 30.45 30.14 29.88 29.74 29.67 29.02 28.49 28.11 27.77 27.66 27.66 27.53 27.42 27.21 27.04 26.89 26.79 26.83 26.86 26.96 27.11 27.14 27.23 27.37 27.59 27.65 27.66 27.76 27.62 27.68 27.64 27.72 27.76 27.71
44.09 43.69 43.33 43.10 42.72 42.23 41.65 41.21 40.78 40.35 39.88 39.49 39.13 38.73 38.21 37.52 36.53 35.78 35.30 35.39 35.44 35.27 34.76 34.14 33.56 33.00 32.66 32.37 31.90 31.55 31.53 31.72 31.40 30.99 30.68 30.63 30.39 30.19 30.00 29.89 29.07 28.49 28.01 27.69 27.51 27.44 27.38 27.28 27.00 26.83 26.75 26.73 26.70 26.68 26.68 26.81 26.84 26.93 27.17 27.33 27.44 27.60 27.58 27.63 27.59 27.50 27.49 27.59 27.71
44.58 44.29 43.88 43.39 42.98 42.55 42.23 41.75 41.21 40.58 39.92 39.48 39.05 38.68 38.04 36.98 35.94 35.26 34.90 35.06 34.97 34.75 34.33 33.96 33.50 33.02 32.55 32.25 31.75 31.37 31.21 31.40 31.18 30.96 30.78 30.56 30.47 30.38 30.25 29.99 29.00 28.21 27.71 27.32 27.18 27.10 27.09 27.10 26.90 26.75 26.62 26.59 26.52 26.65 26.73 26.67 26.67 26.73 26.91 27.10 27.27 27.40 27.43 27.48 27.43 27.40 27.41 27.45 27.62
45.02 44.63 44.21 43.64 43.20 42.80 42.36 41.92 41.45 40.78 39.80 38.61 38.48 38.20 37.68 36.91 35.90 35.10 34.68 34.60 34.44 34.20 33.88 33.63 33.40 33.05 32.69 32.25 31.81 31.34 31.01 30.77 30.66 30.66 30.66 30.45 30.28 30.19 30.16 29.97 28.78 27.86 27.41 27.05 26.92 26.73 26.63 26.58 26.66 26.67 26.57 26.54 26.33 26.50 26.61 26.65 26.69 26.63 26.58 26.80 27.02 27.07 27.15 27.31 27.40 27.36 27.33 27.32 27.49
44.98 44.66 44.23 43.63 43.19 42.58 42.14 41.70 41.18 40.55 39.60 38.36 38.03 37.63 37.19 36.60 35.90 35.16 34.46 34.05 33.77 33.53 33.28 33.18 33.19 32.95 32.58 32.17 31.78 31.33 30.74 30.28 30.03 29.96 30.08 30.22 30.04 29.90 29.75 29.54 28.70 27.87 27.27 27.04 27.30 27.32 27.25 26.76 26.46 26.46 26.55 26.50 26.42 26.44 26.59 26.58 26.63 26.58 26.48 26.54 26.66 26.74 26.84 27.05 27.24 27.31 27.31 27.17 27.24
44.60 44.24 43.84 43.40 42.88 42.31 41.83 41.19 40.59 39.87 39.11 38.18 37.26 36.86 36.70 36.26 35.81 35.22 34.62 34.16 33.69 33.32 32.99 32.87 32.87 32.68 32.39 32.00 31.65 31.22 30.63 30.11 29.70 29.51 29.49 29.64 29.72 29.56 29.19 28.81 28.36 27.85 27.62 27.81 29.85 30.77 30.76 29.61 28.11 27.00 26.50 26.40 26.46 26.46 26.55 26.56 26.64 26.56 26.53 26.46 26.57 26.56 26.64 26.72 26.92 27.09 27.17 27.09 27.09
43.68 43.31 43.03 42.83 42.40 41.83 41.19 40.51 40.06 39.54 38.90 38.33 37.60 36.89 36.41 35.97 35.56 35.05 34.60 34.16 33.89 33.58 33.20 32.71 32.54 32.51 32.43 31.99 31.46 30.98 30.53 30.04 29.74 29.55 29.40 29.32 29.24 29.04 28.67 28.25 27.94 27.61 27.78 29.22 31.31 32.50 32.91 32.72 31.55 29.67 27.66 26.20 26.24 26.18 26.25 26.28 26.54 26.66 26.67 26.62 26.69 26.59 26.40 26.31 26.40 26.68 26.93 27.16 27.09
42.02 41.90 41.90 41.94 41.62 41.27 40.71 40.23 39.87 39.55 39.22 38.85 38.09 37.36 36.71 36.20 35.60 35.08 34.47 33.95 33.75 33.43 33.05 32.50 32.18 32.40 32.49 31.79 31.04 30.46 30.05 29.85 29.68 29.57 29.40 29.31 28.96 28.53 28.12 27.82 27.71 27.51 28.15 30.29 32.07 33.22 33.79 34.05 33.75 32.37 30.06 26.93 26.39 26.14 26.10 26.06 26.28 26.55 26.61 26.58 26.68 26.63 26.52 26.41 26.39 26.60 26.86 27.03 27.19
40.11 40.39 40.66 41.05 41.20 41.11 41.04 40.89 40.27 39.68 39.20 38.84 38.30 37.69 37.15 36.58 35.93 35.22 34.62 34.14 33.81 33.27 32.73 32.13 31.99 31.98 31.83 31.49 30.93 30.35 29.87 29.68 29.56 29.50 29.30 29.16 28.82 28.34 27.86 27.61 27.45 27.99 29.36 31.54 32.67 33.51 34.16 34.68 34.56 34.02 32.43 29.42 27.20 26.39 26.28 26.24 26.36 26.34 26.37 26.46 26.50 26.68 26.68 26.67 26.70 26.77 26.87 27.08 27.28
38.96 39.33 39.68 39.87 40.17 40.46 40.81 40.89 40.44 40.03 39.49 39.09 38.60 37.98 37.36 36.70 35.96 35.33 34.79 34.20 33.66 33.09 32.46 32.05 31.91 31.57 31.20 31.07 30.98 30.78 30.33 29.89 29.48 29.21 28.92 28.66 28.34 28.02 27.73 27.58 27.58 28.63 30.43 32.52 33.21 33.80 34.33 34.75 34.99 34.88 34.27 32.52 28.92 27.06 26.48 26.46 26.45 26.39 26.32 26.32 26.49 26.60 26.73 26.91 27.02 27.06 27.12 27.16 27.33
38.84 39.25 39.52 39.75 39.90 40.12 40.38 40.53 40.50 40.36 40.06 39.56 38.97 38.20 37.42 36.62 35.95 35.30 34.73 34.08 33.51 33.15 32.84 32.44 31.90 31.27 30.82 30.71 30.82 30.74 30.43 29.96 29.50 28.97 28.49 27.95 27.58 27.42 27.49 27.91 27.79 28.74 30.48 32.87 33.47 33.97 34.40 34.80 35.13 35.40 35.27 34.62 31.17 28.43 26.80 26.58 26.58 26.51 26.50 26.54 26.61 26.76 26.89 27.06 27.18 27.19 27.29 27.31 27.35
38.93 39.41 39.80 40.02 40.21 40.31 40.41 40.56 40.54 40.44 40.14 39.56 38.85 38.09 37.31 36.44 35.80 35.24 34.81 34.43 33.92 33.75 33.49 32.87 32.00 31.26 30.89 30.86 30.74 30.60 30.30 29.79 29.11 28.43 27.91 27.37 27.61 27.61 27.66 27.92 27.77 28.66 30.46 32.82 33.55 34.10 34.48 34.90 35.25 35.57 35.76 35.86 33.02 29.87 27.39 26.74 26.70 26.76 26.88 27.01 27.11 27.16 27.23 27.29 27.28 27.31 27.44 27.46 27.45
38.99 39.52 39.84 40.10 40.17 40.35 40.45 40.64 40.54 40.32 39.99 39.45 38.74 37.90 37.08 36.37 35.91 35.60 35.30 35.00 34.48 34.03 33.48 32.66 31.85 31.29 30.96 30.81 30.62 30.29 29.84 29.21 28.59 27.98 27.58 27.34 27.37 27.50 27.69 28.00 28.07 28.90 30.45 32.78 33.57 34.16 34.68 35.04 35.34 35.72 36.02 36.34 34.44 31.27 28.32 27.10 26.98 27.10 27.33 27.66 27.79 27.77 27.71 27.57 27.54 27.52 27.50 27.58 27.66
39.17 39.52 39.80 39.95 39.99 40.25 40.40 40.51 40.37 40.10 39.76 39.21 38.51 37.74 37.00 36.37 36.03 35.62 35.27 35.04 34.54 33.89 33.13 32.49 31.86 31.36 30.95 30.69 30.14 29.66 29.16 28.81 28.46 28.42 28.42 28.24 27.83 27.76 27.89 28.26 28.20 29.35 31.08 32.85 33.57 34.20 34.63 35.10 35.42 35.79 36.13 36.61 35.05 32.29 29.58 27.93 27.45 27.35 27.56 27.99 28.31 28.36 28.34 28.07 27.93 27.80 27.75 27.77 27.88
38.70 39.26 39.52 39.72 39.84 40.07 40.22 40.33 40.22 39.92 39.45 38.82 38.19 37.50 36.86 36.32 35.69 35.19 34.85 34.70 34.34 33.77 33.26 32.86 32.28 31.79 31.37 30.97 30.07 29.38 29.02 28.92 28.82 28.66 28.44 28.38 28.21 28.00 27.84 27.77 27.76 29.56 31.73 33.02 33.62 34.13 34.56 35.08 35.42 35.86 36.23 36.59 35.02 33.01 30.84 28.95 28.03 27.62 27.64 28.06 28.53 28.74 28.70 28.53 28.40 28.32 28.32 28.26 28.42
39.07 39.74 39.92 40.07 40.22 40.26 40.37 40.37 40.22 39.88 39.37 38.63 37.91 37.32 36.81 36.37 35.69 35.09 34.79 34.72 34.46 33.90 33.40 33.01 32.63 32.10 31.56 31.11 30.35 29.64 29.10 28.92 28.86 28.91 28.86 28.76 28.35 27.93 27.57 27.40 27.65 29.61 31.89 33.04 33.59 34.10 34.49 35.05 35.50 35.90 36.10 35.96 34.47 33.16 31.84 30.19 28.86 28.11 27.97 28.20 28.59 28.86 28.96 28.80 28.79 28.91 28.98 29.13 29.15
40.87 41.02 40.94 40.85 40.84 40.76 40.72 40.57 40.26 39.84 39.21 38.62 37.97 37.49 36.96 36.53 36.01 35.50 35.26 35.18 34.54 33.82 33.09 32.68 32.27 31.66 31.11 30.58 30.11 29.71 29.31 28.72 28.70 28.86 29.01 29.04 28.39 27.72 27.28 27.25 27.52 29.28 31.49 32.94 33.52 34.06 34.49 35.01 35.51 35.87 35.80 34.93 33.75 33.20 32.62 31.48 30.07 29.17 28.72 28.57 28.87 29.20 29.36 29.35 29.39 29.46 29.73 29.94 30.03
42.14 42.07 41.78 41.39 41.23 41.03 40.84 40.69 40.23 39.72 39.17 38.65 38.20 37.81 37.32 36.77 36.20 35.98 35.79 35.39 34.42 33.57 32.97 32.58 31.97 31.24 30.68 30.13 29.78 29.59 29.42 29.14 28.80 28.70 28.78 28.92 28.36 27.76 27.36 27.32 27.43 28.78 30.68 32.57 33.34 33.99 34.46 35.01 35.44 35.66 35.33 33.90 33.03 32.99 32.99 32.43 31.40 30.47 29.74 29.30 29.48 29.76 30.05 30.22 30.22 30.27 30.39 30.73 31.14
42.85 42.59 42.24 41.78 41.48 41.24 41.05 40.78 40.23 39.80 39.28 38.96 38.72 38.35 37.83 37.19 36.53 36.15 35.89 35.60 34.40 33.47 32.90 32.46 31.84 31.30 30.80 30.42 30.01 29.78 29.61 29.42 29.25 29.00 28.76 28.76 28.54 28.11 27.68 27.43 27.59 28.54 29.99 32.01 33.09 33.82 34.39 34.97 35.45 35.55 35.00 33.23 32.66 32.61 32.84 33.03 32.39 31.59 30.86 30.28 30.33 30.47 30.72 31.00 31.07 31.10 31.17 31.48 32.61
42.84 42.62 42.24 41.84 41.44 41.21 40.93 40.66 40.15 39.84 39.51 39.31 39.07 38.76 38.41 37.78 36.96 36.53 36.18 35.70 34.56 33.70 32.97 32.36 31.88 31.61 31.29 31.01 30.38 29.86 29.53 29.45 29.51 29.36 29.08 28.67 28.88 29.02 28.78 27.91 27.96 28.62 29.85 31.70 32.72 33.56 34.20 34.86 35.33 35.72 35.34 33.75 32.78 32.47 32.61 33.05 32.97 32.50 31.85 31.34 31.08 31.00 31.24 31.61 31.74 31.77 31.88 32.13 34.10
42.71 42.54 42.22 41.83 41.44 41.09 40.78 40.51 40.27 40.11 39.95 39.62 39.19 38.88 38.60 38.33 37.91 37.52 36.90 36.05 35.03 34.07 33.19 32.55 32.27 32.00 31.88 31.62 30.66 29.93 29.45 29.29 29.26 29.29 29.29 29.17 29.54 30.13 30.21 28.92 28.52 28.86 29.90 31.50 32.59 33.30 33.99 34.64 35.22 35.70 35.44 33.83 32.87 32.51 32.53 32.98 33.10 32.98 32.58 32.10 31.66 31.46 31.47 31.86 32.14 32.24 32.24 32.35 34.01
42.63 42.50 42.22 41.89 41.63 41.33 40.90 40.51 40.47 40.39 40.27 39.91 39.43 39.11 38.96 38.97 38.54 37.92 37.19 36.14 35.18 34.32 33.49 32.80 32.56 32.39 32.10 31.87 30.92 30.13 29.54 29.19 29.25 29.33 29.39 29.56 29.75 30.35 30.55 29.66 29.19 29.23 29.78 31.01 32.33 33.24 33.88 34.54 35.07 35.63 35.58 34.01 33.04 32.57 32.54 32.77 32.78 32.74 32.67 32.45 32.23 31.86 31.69 31.86 32.21 32.32 32.44 32.40 32.93
MSLP
1011.99 1012.15 1012.27 1012.39 1012.47 1012.55 1012.63 1012.67 1012.71 1012.83 1012.87 1012.91 1012.99 1013.03 1013.11 1013.23 1013.31 1013.39 1013.51 1013.67 1013.79 1013.91 1014.07 1014.23 1014.39 1014.55 1014.75 1014.99 1015.11 1015.27 1015.39 1015.55 1015.67 1015.83 1015.95 1016.07 1016.19 1016.35 1016.55 1016.71 1016.95 1017.11 1017.23 1017.39 1017.55 1017.71 1017.91 1018.07 1018.27 1018.39 1018.55 1018.63 1018.75 1018.87 1018.99 1019.15 1019.35 1019.51 1019.71 1019.87 1020.07 1020.27 1020.43 1020.59 1020.71 1020.83 1020.95 1021.03 1021.15
1011.67 1011.79 1011.95 1012.07 1012.15 1012.27 1012.35 1012.39 1012.47 1012.55 1012.63 1012.71 1012.75 1012.79 1012.87 1012.99 1013.11 1013.19 1013.27 1013.39 1013.51 1013.63 1013.83 1013.99 1014.11 1014.27 1014.47 1014.63 1014.79 1014.95 1015.11 1015.19 1015.35 1015.47 1015.59 1015.71 1015.87 1016.07 1016.27 1016.47 1016.67 1016.83 1016.99 1017.11 1017.27 1017.43 1017.63 1017.79 1017.99 1018.11 1018.27 1018.39 1018.51 1018.63 1018.75 1018.91 1019.11 1019.27 1019.43 1019.59 1019.83 1019.99 1020.19 1020.35 1020.43 1020.55 1020.71 1020.83 1020.99
1011.35 1011.51 1011.63 1011.75 1011.83 1011.95 1012.03 1012.07 1012.11 1012.23 1012.31 1012.43 1012.51 1012.59 1012.67 1012.75 1012.83 1012.95 1013.07 1013.15 1013.27 1013.39 1013.55 1013.71 1013.83 1013.99 1014.15 1014.27 1014.47 1014.63 1014.75 1014.87 1015.03 1015.19 1015.31 1015.47 1015.59 1015.79 1015.99 1016.19 1016.43 1016.59 1016.75 1016.91 1016.99 1017.15 1017.31 1017.47 1017.63 1017.79 1017.95 1018.11 1018.23 1018.35 1018.47 1018.67 1018.83 1019.03 1019.19 1019.35 1019.55 1019.75 1019.95 1020.11 1020.19 1020.35 1020.51 1020.67 1020.75
1011.07 1011.19 1011.27 1011.39 1011.43 1011.55 1011.63 1011.71 1011.83 1011.95 1012.07 1012.15 1012.27 1012.39 1012.43 1012.51 1012.63 1012.71 1012.83 1012.95 1013.07 1013.15 1013.27 1013.39 1013.51 1013.67 1013.79 1013.99 1014.11 1014.27 1014.43 1014.59 1014.75 1014.91 1015.03 1015.19 1015.31 1015.43 1015.63 1015.87 1016.07 1016.27 1016.47 1016.63 1016.75 1016.83 1016.99 1017.19 1017.31 1017.43 1017.59 1017.79 1017.91 1017.99 1018.11 1018.35 1018.55 1018.75 1018.91 1019.07 1019.27 1019.47 1019.67 1019.79 1019.95 1020.11 1020.27 1020.43 1020.55
1010.79 1010.87 1010.99 1011.03 1011.11 1011.19 1011.27 1011.39 1011.51 1011.63 1011.79 1011.91 1012.07 1012.15 1012.23 1012.31 1012.43 1012.55 1012.67 1012.75 1012.83 1012.87 1012.95 1013.07 1013.23 1013.35 1013.47 1013.63 1013.79 1013.95 1014.11 1014.23 1014.39 1014.55 1014.71 1014.83 1014.99 1015.15 1015.31 1015.55 1015.71 1015.91 1016.15 1016.35 1016.51 1016.63 1016.71 1016.83 1016.99 1017.11 1017.27 1017.43 1017.63 1017.75 1017.87 1018.03 1018.27 1018.47 1018.67 1018.83 1018.99 1019.19 1019.39 1019.55 1019.71 1019.83 1019.99 1020.15 1020.31
1010.55 1010.63 1010.71 1010.79 1010.87 1010.99 1011.03 1011.11 1011.23 1011.39 1011.55 1011.71 1011.79 1011.83 1011.95 1012.07 1012.15 1012.27 1012.43 1012.51 1012.55 1012.63 1012.75 1012.87 1012.99 1013.11 1013.19 1013.35 1013.51 1013.67 1013.79 1013.95 1014.03 1014.15 1014.27 1014.47 1014.63 1014.79 1014.99 1015.19 1015.35 1015.55 1015.79 1016.03 1016.19 1016.35 1016.47 1016.55 1016.67 1016.79 1016.95 1017.15 1017.35 1017.47 1017.63 1017.83 1017.99 1018.19 1018.39 1018.55 1018.71 1018.87 1019.07 1019.27 1019.39 1019.55 1019.75 1019.95 1020.07
1010.35 1010.43 1010.47 1010.55 1010.67 1010.79 1010.83 1010.95 1011.03 1011.15 1011.27 1011.39 1011.51 1011.55 1011.63 1011.75 1011.91 1011.99 1012.11 1012.23 1012.35 1012.47 1012.59 1012.67 1012.71 1012.83 1012.95 1013.07 1013.27 1013.39 1013.55 1013.67 1013.79 1013.83 1013.99 1014.07 1014.23 1014.43 1014.59 1014.79 1014.99 1015.23 1015.43 1015.63 1015.83 1016.03 1016.11 1016.23 1016.35 1016.47 1016.63 1016.83 1017.03 1017.19 1017.35 1017.55 1017.71 1017.87 1018.07 1018.23 1018.39 1018.55 1018.75 1018.91 1019.11 1019.27 1019.51 1019.67 1019.83
1010.15 1010.23 1010.27 1010.31 1010.43 1010.55 1010.63 1010.71 1010.87 1010.99 1011.07 1011.11 1011.15 1011.23 1011.31 1011.47 1011.63 1011.75 1011.87 1012.03 1012.15 1012.27 1012.31 1012.43 1012.47 1012.55 1012.63 1012.79 1012.91 1013.07 1013.27 1013.39 1013.55 1013.67 1013.75 1013.79 1013.87 1013.99 1014.15 1014.39 1014.63 1014.83 1015.07 1015.27 1015.43 1015.63 1015.75 1015.95 1016.03 1016.11 1016.27 1016.43 1016.59 1016.83 1017.03 1017.19 1017.35 1017.51 1017.71 1017.83 1018.03 1018.23 1018.43 1018.63 1018.83 1019.07 1019.27 1019.39 1019.55
1009.99 1010.03 1010.11 1010.15 1010.23 1010.31 1010.43 1010.55 1010.67 1010.75 1010.79 1010.83 1010.83 1010.95 1011.07 1011.23 1011.35 1011.51 1011.67 1011.79 1011.83 1011.95 1012.07 1012.11 1012.19 1012.27 1012.39 1012.51 1012.59 1012.71 1012.87 1013.07 1013.27 1013.43 1013.55 1013.63 1013.67 1013.71 1013.79 1013.99 1014.19 1014.39 1014.63 1014.83 1014.99 1015.19 1015.35 1015.55 1015.67 1015.75 1015.87 1015.99 1016.19 1016.43 1016.67 1016.83 1017.07 1017.23 1017.35 1017.47 1017.71 1017.91 1018.11 1018.39 1018.59 1018.83 1018.99 1019.11 1019.23
1009.79 1009.83 1009.91 1009.99 1009.99 1010.07 1010.19 1010.35 1010.43 1010.51 1010.55 1010.59 1010.63 1010.71 1010.83 1010.99 1011.11 1011.23 1011.39 1011.47 1011.59 1011.71 1011.75 1011.79 1011.87 1011.99 1012.11 1012.19 1012.31 1012.43 1012.55 1012.71 1012.95 1013.15 1013.35 1013.47 1013.55 1013.55 1013.59 1013.67 1013.75 1013.95 1014.15 1014.39 1014.55 1014.79 1014.99 1015.15 1015.27 1015.39 1015.51 1015.67 1015.83 1016.03 1016.27 1016.51 1016.71 1016.87 1017.03 1017.15 1017.35 1017.55 1017.79 1018.03 1018.31 1018.55 1018.71 1018.83 1018.87
1009.55 1009.63 1009.71 1009.71 1009.79 1009.87 1009.99 1010.11 1010.19 1010.27 1010.31 1010.35 1010.39 1010.51 1010.63 1010.71 1010.83 1010.95 1011.11 1011.23 1011.35 1011.39 1011.39 1011.47 1011.59 1011.71 1011.79 1011.91 1012.03 1012.15 1012.31 1012.47 1012.63 1012.83 1013.03 1013.23 1013.31 1013.39 1013.47 1013.51 1013.51 1013.55 1013.71 1013.87 1014.11 1014.35 1014.55 1014.71 1014.83 1014.99 1015.15 1015.27 1015.51 1015.71 1015.95 1016.11 1016.35 1016.55 1016.71 1016.87 1017.03 1017.27 1017.47 1017.71 1017.99 1018.23 1018.43 1018.47 1018.55
1009.35 1009.39 1009.43 1009.51 1009.59 1009.71 1009.83 1009.87 1009.95 1009.99 1010.07 1010.11 1010.15 1010.27 1010.43 1010.51 1010.59 1010.71 1010.87 1010.99 1011.03 1011.11 1011.19 1011.31 1011.39 1011.43 1011.51 1011.63 1011.75 1011.91 1012.03 1012.19 1012.39 1012.55 1012.71 1012.87 1013.07 1013.23 1013.35 1013.39 1013.43 1013.43 1013.43 1013.55 1013.71 1013.87 1014.07 1014.23 1014.39 1014.55 1014.75 1014.95 1015.15 1015.39 1015.59 1015.79 1016.03 1016.27 1016.43 1016.59 1016.75 1016.95 1017.19 1017.39 1017.67 1017.83 1017.99 1018.11 1018.23
1009.19 1009.23 1009.27 1009.39 1009.47 1009.59 1009.71 1009.71 1009.75 1009.83 1009.87 1009.95 1010.03 1010.15 1010.27 1010.35 1010.43 1010.55 1010.71 1010.75 1010.79 1010.91 1011.03 1011.15 1011.27 1011.31 1011.35 1011.39 1011.55 1011.67 1011.79 1011.91 1012.11 1012.27 1012.43 1012.55 1012.75 1012.99 1013.11 1013.27 1013.31 1013.35 1013.39 1013.39 1013.47 1013.55 1013.67 1013.83 1013.99 1014.15 1014.39 1014.55 1014.79 1014.99 1015.19 1015.39 1015.63 1015.83 1016.07 1016.27 1016.47 1016.67 1016.83 1017.11 1017.31 1017.51 1017.67 1017.83 1017.87
1009.07 1009.15 1009.23 1009.31 1009.39 1009.55 1009.67 1009.71 1009.75 1009.83 1009.87 1009.91 1010.03 1010.15 1010.23 1010.27 1010.35 1010.43 1010.55 1010.55 1010.63 1010.75 1010.91 1011.03 1011.11 1011.19 1011.27 1011.31 1011.39 1011.51 1011.59 1011.71 1011.83 1011.99 1012.11 1012.23 1012.43 1012.59 1012.79 1012.95 1013.11 1013.19 1013.27 1013.27 1013.35 1013.39 1013.43 1013.55 1013.67 1013.83 1013.99 1014.23 1014.43 1014.59 1014.83 1015.03 1015.27 1015.43 1015.67 1015.91 1016.11 1016.27 1016.51 1016.75 1016.99 1017.19 1017.35 1017.43 1017.47
1008.99 1009.07 1009.15 1009.31 1009.43 1009.55 1009.63 1009.75 1009.83 1009.87 1009.91 1009.99 1010.03 1010.11 1010.19 1010.23 1010.27 1010.31 1010.35 1010.43 1010.51 1010.63 1010.79 1010.91 1010.99 1011.03 1011.15 1011.27 1011.39 1011.43 1011.47 1011.55 1011.59 1011.71 1011.83 1011.91 1012.03 1012.19 1012.39 1012.55 1012.75 1012.91 1013.03 1013.11 1013.19 1013.27 1013.27 1013.35 1013.47 1013.63 1013.75 1013.91 1014.11 1014.27 1014.51 1014.71 1014.91 1015.11 1015.31 1015.51 1015.71 1015.87 1016.11 1016.39 1016.63 1016.83 1016.95 1017.03 1017.11
1008.83 1008.95 1009.11 1009.27 1009.39 1009.43 1009.55 1009.67 1009.71 1009.79 1009.83 1009.87 1009.91 1009.99 1010.11 1010.11 1010.15 1010.23 1010.27 1010.27 1010.35 1010.47 1010.59 1010.71 1010.75 1010.87 1011.03 1011.15 1011.27 1011.39 1011.43 1011.47 1011.47 1011.51 1011.55 1011.59 1011.71 1011.83 1011.99 1012.15 1012.39 1012.55 1012.71 1012.87 1012.99 1013.07 1013.11 1013.23 1013.35 1013.47 1013.59 1013.71 1013.87 1014.03 1014.23 1014.43 1014.59 1014.79 1014.99 1015.11 1015.35 1015.55 1015.75 1015.99 1016.23 1016.43 1016.55 1016.63 1016.75
1008.67 1008.75 1008.91 1009.03 1009.11 1009.23 1009.31 1009.39 1009.47 1009.55 1009.55 1009.63 1009.71 1009.83 1009.91 1009.99 1009.99 1010.07 1010.11 1010.15 1010.23 1010.27 1010.39 1010.43 1010.55 1010.71 1010.83 1010.91 1011.07 1011.23 1011.31 1011.31 1011.35 1011.35 1011.39 1011.39 1011.43 1011.51 1011.63 1011.75 1011.91 1012.11 1012.35 1012.55 1012.67 1012.79 1012.91 1013.07 1013.15 1013.31 1013.43 1013.55 1013.67 1013.83 1013.99 1014.11 1014.31 1014.47 1014.67 1014.83 1015.03 1015.19 1015.39 1015.59 1015.83 1015.99 1016.15 1016.27 1016.39
1008.51 1008.55 1008.63 1008.75 1008.83 1008.87 1008.99 1009.03 1009.11 1009.19 1009.27 1009.35 1009.51 1009.59 1009.71 1009.75 1009.83 1009.87 1009.91 1009.99 1010.07 1010.11 1010.15 1010.27 1010.39 1010.47 1010.55 1010.67 1010.79 1010.91 1011.03 1011.07 1011.11 1011.15 1011.19 1011.23 1011.27 1011.35 1011.39 1011.39 1011.55 1011.71 1011.87 1012.07 1012.19 1012.35 1012.55 1012.71 1012.87 1013.07 1013.27 1013.39 1013.51 1013.63 1013.75 1013.87 1014.03 1014.19 1014.35 1014.55 1014.71 1014.87 1015.07 1015.27 1015.47 1015.71 1015.83 1015.99 1016.03
1008.35 1008.43 1008.47 1008.47 1008.51 1008.55 1008.63 1008.67 1008.75 1008.83 1008.91 1009.03 1009.19 1009.27 1009.39 1009.51 1009.59 1009.71 1009.75 1009.83 1009.87 1009.95 1009.99 1010.11 1010.15 1010.27 1010.35 1010.43 1010.51 1010.59 1010.67 1010.75 1010.83 1010.91 1010.99 1011.07 1011.15 1011.23 1011.27 1011.27 1011.39 1011.51 1011.59 1011.71 1011.83 1011.95 1012.11 1012.35 1012.55 1012.75 1012.99 1013.15 1013.31 1013.43 1013.55 1013.67 1013.79 1013.95 1014.11 1014.27 1014.43 1014.59 1014.79 1014.99 1015.19 1015.39 1015.55 1015.63 1015.75
1008.27 1008.31 1008.31 1008.31 1008.31 1008.35 1008.39 1008.39 1008.43 1008.47 1008.55 1008.63 1008.75 1008.87 1008.99 1009.11 1009.27 1009.43 1009.51 1009.55 1009.67 1009.75 1009.83 1009.87 1009.99 1010.07 1010.11 1010.19 1010.27 1010.35 1010.43 1010.47 1010.55 1010.67 1010.75 1010.83 1010.99 1011.07 1011.11 1011.23 1011.35 1011.47 1011.59 1011.67 1011.75 1011.87 1011.99 1012.19 1012.39 1012.55 1012.71 1012.91 1013.07 1013.23 1013.35 1013.47 1013.59 1013.75 1013.91 1014.03 1014.19 1014.35 1014.51 1014.71 1014.87 1015.07 1015.23 1015.35 1015.47
1008.23 1008.23 1008.19 1008.19 1008.19 1008.19 1008.15 1008.15 1008.19 1008.23 1008.27 1008.31 1008.35 1008.43 1008.55 1008.71 1008.87 1009.03 1009.15 1009.27 1009.43 1009.55 1009.63 1009.67 1009.75 1009.83 1009.95 1010.03 1010.11 1010.15 1010.23 1010.31 1010.43 1010.47 1010.55 1010.63 1010.75 1010.87 1010.99 1011.11 1011.31 1011.43 1011.55 1011.71 1011.75 1011.83 1011.99 1012.11 1012.27 1012.43 1012.55 1012.71 1012.83 1012.95 1013.07 1013.23 1013.35 1013.51 1013.67 1013.83 1013.99 1014.11 1014.27 1014.43 1014.63 1014.79 1014.91 1015.03 1015.19
1008.11 1008.11 1008.07 1008.07 1008.07 1008.07 1008.03 1007.99 1008.03 1008.07 1008.07 1008.07 1008.11 1008.19 1008.27 1008.43 1008.51 1008.67 1008.83 1008.99 1009.19 1009.27 1009.35 1009.39 1009.51 1009.63 1009.71 1009.83 1009.91 1009.99 1010.07 1010.19 1010.27 1010.27 1010.35 1010.43 1010.55 1010.67 1010.83 1010.99 1011.11 1011.27 1011.39 1011.51 1011.63 1011.75 1011.91 1011.99 1012.15 1012.27 1012.43 1012.55 1012.63 1012.71 1012.83 1012.95 1013.07 1013.23 1013.35 1013.51 1013.71 1013.87 1014.03 1014.23 1014.39 1014.51 1014.63 1014.75 1014.83
1007.99 1007.95 1007.91 1007.91 1007.87 1007.87 1007.83 1007.83 1007.83 1007.87 1007.87 1007.91 1007.99 1008.03 1008.11 1008.19 1008.27 1008.43 1008.55 1008.75 1008.87 1008.99 1009.07 1009.15 1009.27 1009.39 1009.47 1009.59 1009.71 1009.83 1009.87 1009.99 1010.07 1010.11 1010.15 1010.27 1010.35 1010.47 1010.63 1010.79 1010.91 1011.03 1011.15 1011.27 1011.43 1011.63 1011.79 1011.95 1012.03 1012.15 1012.27 1012.39 1012.47 1012.55 1012.59 1012.71 1012.83 1012.95 1013.07 1013.19 1013.39 1013.55 1013.75 1013.95 1014.11 1014.23 1014.39 1014.47 1014.59
1007.87 1007.83 1007.75 1007.71 1007.67 1007.67 1007.63 1007.63 1007.63 1007.63 1007.67 1007.71 1007.79 1007.87 1007.95 1007.99 1008.11 1008.27 1008.35 1008.47 1008.55 1008.67 1008.75 1008.91 1008.99 1009.11 1009.23 1009.39 1009.51 1009.59 1009.67 1009.71 1009.79 1009.87 1009.95 1010.03 1010.15 1010.27 1010.43 1010.55 1010.67 1010.75 1010.83 1010.99 1011.15 1011.35 1011.51 1011.71 1011.83 1011.95 1012.07 1012.19 1012.27 1012.35 1012.43 1012.47 1012.55 1012.67 1012.79 1012.91 1013.07 1013.23 1013.39 1013.59 1013.75 1013.95 1014.07 1014.19 1014.31
1007.75 1007.71 1007.63 1007.55 1007.47 1007.43 1007.39 1007.39 1007.39 1007.39 1007.39 1007.43 1007.55 1007.63 1007.71 1007.79 1007.87 1007.99 1008.11 1008.19 1008.27 1008.39 1008.51 1008.63 1008.75 1008.87 1008.99 1009.11 1009.23 1009.31 1009.39 1009.39 1009.51 1009.59 1009.71 1009.83 1009.91 1010.03 1010.19 1010.31 1010.43 1010.51 1010.63 1010.75 1010.83 1010.95 1011.11 1011.27 1011.43 1011.63 1011.79 1011.91 1012.03 1012.11 1012.23 1012.27 1012.31 1012.43 1012.51 1012.63 1012.79 1012.95 1013.11 1013.31 1013.43 1013.59 1013.75 1013.87 1013.99
1007.71 1007.63 1007.51 1007.39 1007.31 1007.27 1007.23 1007.19 1007.15 1007.15 1007.15 1007.15 1007.27 1007.35 1007.39 1007.47 1007.59 1007.71 1007.79 1007.83 1007.99 1008.11 1008.23 1008.39 1008.51 1008.63 1008.71 1008.83 1008.91 1008.99 1009.03 1009.11 1009.19 1009.31 1009.43 1009.55 1009.63 1009.75 1009.91 1010.03 1010.11 1010.27 1010.39 1010.47 1010.55 1010.59 1010.71 1010.83 1010.99 1011.27 1011.47 1011.63 1011.79 1011.91 1011.99 1012.03 1012.11 1012.19 1012.27 1012.43 1012.55 1012.67 1012.79 1012.95 1013.07 1013.23 1013.39 1013.55 1013.67
1007.71 1007.55 1007.39 1007.27 1007.15 1007.07 1006.99 1006.99 1006.99 1006.95 1006.91 1006.95 1006.99 1006.99 1007.07 1007.15 1007.27 1007.35 1007.43 1007.55 1007.63 1007.83 1007.99 1008.11 1008.23 1008.35 1008.43 1008.51 1008.55 1008.63 1008.71 1008.79 1008.91 1008.99 1009.11 1009.19 1009.31 1009.39 1009.55 1009.67 1009.79 1009.95 1010.07 1010.11 1010.23 1010.35 1010.43 1010.51 1010.59 1010.83 1011.07 1011.31 1011.43 1011.55 1011.63 1011.71 1011.83 1011.99 1012.07 1012.15 1012.23 1012.31 1012.43 1012.51 1012.63 1012.83 1012.99 1013.11 1013.27
1007.67 1007.47 1007.27 1007.11 1006.99 1006.83 1006.71 1006.67 1006.67 1006.63 1006.59 1006.63 1006.67 1006.71 1006.75 1006.83 1006.95 1006.99 1007.03 1007.11 1007.31 1007.47 1007.67 1007.79 1007.95 1008.07 1008.15 1008.15 1008.15 1008.23 1008.35 1008.43 1008.55 1008.63 1008.71 1008.83 1008.91 1008.99 1009.11 1009.27 1009.35 1009.51 1009.63 1009.75 1009.87 1009.99 1010.07 1010.11 1010.23 1010.35 1010.55 1010.83 1011.07 1011.23 1011.27 1011.39 1011.55 1011.71 1011.79 1011.87 1011.95 1011.99 1012.11 1012.15 1012.27 1012.43 1012.55 1012.71 1012.87
1007.55 1007.31 1007.11 1006.99 1006.79 1006.59 1006.47 1006.39 1006.31 1006.27 1006.27 1006.27 1006.35 1006.43 1006.47 1006.55 1006.59 1006.67 1006.71 1006.79 1006.91 1007.11 1007.23 1007.39 1007.55 1007.71 1007.75 1007.71 1007.71 1007.83 1007.95 1008.07 1008.19 1008.31 1008.43 1008.47 1008.55 1008.59 1008.71 1008.79 1008.91 1008.99 1009.15 1009.31 1009.47 1009.59 1009.71 1009.75 1009.83 1009.91 1010.07 1010.31 1010.71 1010.91 1010.99 1011.11 1011.27 1011.35 1011.43 1011.55 1011.55 1011.67 1011.75 1011.83 1011.99 1012.07 1012.15 1012.27 1012.43
1007.35 1007.11 1006.95 1006.75 1006.55 1006.39 1006.23 1006.11 1005.99 1005.99 1005.99 1005.99 1006.03 1006.11 1006.11 1006.23 1006.27 1006.31 1006.39 1006.47 1006.55 1006.63 1006.75 1006.91 1007.11 1007.23 1007.27 1007.23 1007.31 1007.43 1007.55 1007.59 1007.75 1007.87 1007.99 1008.03 1008.11 1008.19 1008.27 1008.35 1008.43 1008.55 1008.67 1008.83 1008.99 1009.11 1009.27 1009.31 1009.39 1009.47 1009.59 1009.75 1010.11 1010.47 1010.67 1010.75 1010.87 1010.99 1011.03 1011.11 1011.19 1011.27 1011.35 1011.47 1011.55 1011.71 1011.75 1011.83 1011.99
1007.15 1006.95 1006.71 1006.55 1006.31 1006.11 1005.99 1005.83 1005.79 1005.75 1005.75 1005.75 1005.79 1005.83 1005.83 1005.87 1005.91 1005.99 1006.07 1006.11 1006.19 1006.27 1006.43 1006.55 1006.67 1006.71 1006.75 1006.83 1006.99 1007.03 1007.11 1007.19 1007.35 1007.51 1007.59 1007.67 1007.71 1007.75 1007.83 1007.95 1008.03 1008.11 1008.23 1008.39 1008.51 1008.63 1008.75 1008.87 1008.99 1009.07 1009.15 1009.27 1009.63 1009.99 1010.23 1010.39 1010.51 1010.55 1010.59 1010.67 1010.71 1010.83 1010.95 1011.11 1011.19 1011.27 1011.35 1011.43 1011.55
1006.99 1006.79 1006.55 1006.35 1006.11 1005.91 1005.71 1005.63 1005.55 1005.55 1005.55 1005.55 1005.55 1005.55 1005.55 1005.55 1005.59 1005.67 1005.71 1005.83 1005.95 1005.99 1006.07 1006.11 1006.19 1006.23 1006.27 1006.43 1006.55 1006.59 1006.71 1006.83 1006.99 1007.11 1007.23 1007.31 1007.39 1007.43 1007.51 1007.59 1007.67 1007.75 1007.87 1007.99 1008.07 1008.15 1008.27 1008.43 1008.55 1008.67 1008.75 1008.83 1009.11 1009.43 1009.75 1009.99 1010.15 1010.23 1010.27 1010.27 1010.35 1010.43 1010.55 1010.67 1010.75 1010.83 1010.95 1011.03 1011.11
1006.79 1006.59 1006.43 1006.15 1005.91 1005.71 1005.55 1005.43 1005.35 1005.31 1005.31 1005.31 1005.27 1005.27 1005.31 1005.31 1005.31 1005.39 1005.47 1005.55 1005.63 1005.71 1005.71 1005.71 1005.75 1005.79 1005.83 1005.91 1006.03 1006.15 1006.27 1006.43 1006.55 1006.71 1006.83 1006.95 1007.03 1007.11 1007.19 1007.23 1007.27 1007.39 1007.47 1007.59 1007.71 1007.79 1007.87 1007.99 1008.11 1008.27 1008.39 1008.47 1008.67 1008.99 1009.27 1009.55 1009.79 1009.91 1009.91 1009.95 1009.99 1010.11 1010.15 1010.27 1010.31 1010.43 1010.55 1010.67 1010.71
1006.59 1006.43 1006.19 1005.95 1005.71 1005.51 1005.35 1005.19 1005.11 1005.07 1005.03 1004.99 1004.99 1004.99 1004.99 1005.03 1005.11 1005.19 1005.27 1005.27 1005.35 1005.39 1005.35 1005.31 1005.35 1005.39 1005.39 1005.43 1005.55 1005.71 1005.83 1005.99 1006.11 1006.27 1006.43 1006.55 1006.63 1006.71 1006.79 1006.83 1006.87 1006.99 1007.11 1007.27 1007.35 1007.43 1007.55 1007.63 1007.75 1007.83 1007.99 1008.11 1008.27 1008.51 1008.79 1009.07 1009.31 1009.47 1009.55 1009.55 1009.63 1009.71 1009.83 1009.91 1009.99 1010.03 1010.15 1010.27 1010.39
1006.35 1006.11 1005.87 1005.67 1005.47 1005.27 1005.11 1004.99 1004.87 1004.79 1004.71 1004.71 1004.63 1004.67 1004.71 1004.79 1004.83 1004.87 1004.95 1004.99 1005.03 1005.07 1005.03 1004.99 1004.99 1005.07 1005.11 1005.15 1005.27 1005.35 1005.47 1005.55 1005.71 1005.83 1005.95 1006.11 1006.23 1006.27 1006.35 1006.39 1006.51 1006.67 1006.83 1006.91 1006.99 1007.11 1007.19 1007.27 1007.39 1007.47 1007.63 1007.75 1007.91 1008.07 1008.23 1008.51 1008.75 1008.91 1009.03 1009.11 1009.19 1009.31 1009.43 1009.55 1009.63 1009.71 1009.83 1009.91 1009.99
1005.99 1005.79 1005.55 1005.35 1005.19 1004.99 1004.83 1004.71 1004.63 1004.55 1004.47 1004.39 1004.35 1004.35 1004.39 1004.43 1004.47 1004.55 1004.63 1004.71 1004.79 1004.79 1004.75 1004.75 1004.79 1004.83 1004.91 1004.91 1004.99 1005.07 1005.15 1005.27 1005.31 1005.39 1005.55 1005.67 1005.79 1005.87 1005.95 1005.99 1006.15 1006.31 1006.43 1006.55 1006.67 1006.75 1006.83 1006.99 1007.03 1007.11 1007.27 1007.43 1007.55 1007.63 1007.75 1007.95 1008.15 1008.31 1008.51 1008.67 1008.71 1008.83 1008.99 1009.15 1009.27 1009.39 1009.47 1009.51 1009.55
1005.67 1005.51 1005.31 1005.11 1004.95 1004.75 1004.59 1004.51 1004.43 1004.27 1004.19 1004.11 1004.07 1004.07 1004.07 1004.11 1004.11 1004.19 1004.27 1004.43 1004.51 1004.47 1004.43 1004.47 1004.55 1004.55 1004.55 1004.63 1004.71 1004.75 1004.83 1004.91 1005.03 1005.11 1005.19 1005.27 1005.39 1005.51 1005.59 1005.71 1005.83 1005.99 1006.11 1006.27 1006.31 1006.43 1006.51 1006.59 1006.71 1006.83 1006.99 1007.11 1007.15 1007.23 1007.31 1007.43 1007.59 1007.75 1007.95 1008.11 1008.23 1008.35 1008.51 1008.71 1008.87 1008.99 1009.07 1009.11 1009.11
1005.35 1005.19 1005.07 1004.91 1004.71 1004.55 1004.39 1004.27 1004.15 1004.03 1003.95 1003.83 1003.75 1003.75 1003.79 1003.79 1003.83 1003.87 1003.99 1004.07 1004.15 1004.11 1004.11 1004.15 1004.27 1004.27 1004.27 1004.39 1004.47 1004.55 1004.59 1004.71 1004.79 1004.83 1004.87 1004.95 1005.03 1005.15 1005.27 1005.39 1005.47 1005.63 1005.75 1005.91 1005.99 1006.07 1006.15 1006.27 1006.35 1006.43 1006.59 1006.71 1006.79 1006.83 1006.87 1006.99 1007.03 1007.15 1007.35 1007.55 1007.71 1007.87 1008.07 1008.27 1008.43 1008.55 1008.67 1008.71 1008.71
1005.07 1004.99 1004.87 1004.71 1004.51 1004.31 1004.15 1004.03 1003.91 1003.79 1003.67 1003.59 1003.55 1003.51 1003.47 1003.51 1003.51 1003.55 1003.59 1003.71 1003.79 1003.83 1003.83 1003.91 1003.95 1003.99 1004.11 1004.23 1004.27 1004.31 1004.35 1004.43 1004.51 1004.55 1004.63 1004.67 1004.71 1004.83 1004.99 1005.03 1005.11 1005.23 1005.39 1005.55 1005.63 1005.71 1005.79 1005.87 1005.99 1006.11 1006.23 1006.35 1006.43 1006.47 1006.51 1006.51 1006.55 1006.63 1006.79 1006.99 1007.19 1007.39 1007.59 1007.79 1007.95 1008.07 1008.19 1008.27 1008.31
1004.83 1004.71 1004.59 1004.43 1004.27 1004.07 1003.91 1003.79 1003.67 1003.55 1003.43 1003.39 1003.27 1003.23 1003.19 1003.19 1003.19 1003.19 1003.23 1003.35 1003.39 1003.51 1003.55 1003.63 1003.67 1003.75 1003.87 1003.99 1004.07 1004.07 1004.11 1004.15 1004.27 1004.35 1004.39 1004.43 1004.47 1004.55 1004.63 1004.71 1004.75 1004.87 1004.99 1005.11 1005.27 1005.35 1005.43 1005.55 1005.63 1005.71 1005.83 1005.99 1006.11 1006.11 1006.15 1006.11 1006.11 1006.19 1006.27 1006.43 1006.67 1006.87 1007.11 1007.27 1007.43 1007.59 1007.71 1007.83 1007.95
1004.59 1004.47 1004.31 1004.15 1003.99 1003.83 1003.71 1003.55 1003.39 1003.27 1003.19 1003.11 1003.07 1003.03 1002.99 1002.99 1002.91 1002.91 1002.95 1002.99 1003.11 1003.19 1003.27 1003.31 1003.39 1003.51 1003.63 1003.71 1003.79 1003.83 1003.83 1003.87 1003.99 1004.11 1004.15 1004.19 1004.27 1004.31 1004.35 1004.39 1004.43 1004.51 1004.63 1004.75 1004.87 1004.99 1005.07 1005.15 1005.27 1005.35 1005.47 1005.67 1005.75 1005.83 1005.79 1005.75 1005.71 1005.71 1005.79 1005.91 1006.15 1006.39 1006.59 1006.79 1006.99 1007.11 1007.23 1007.35 1007.51
Wind_Speed
13 12 11 10 9 9 8 8 8 8 8 8 8 8 7 7 7 7 7 7 7 7 7 7 8 8 10 13 15 15 16 16 17 18 19 19 18 17 16 15 15 14 14 14 14 14 13 14 12 9 8 9 10 10 10 9 10 11 12 12 10 11 12 12 12 13 14 13 10
14 14 13 12 11 9 8 8 8 8 8 8 8 8 7 7 7 7 7 8 7 7 7 7 8 9 11 14 15 16 16 17 18 18 19 19 18 17 16 15 15 15 15 15 15 13 12 14 12 10 8 8 9 10 10 9 10 11 12 14 11 10 10 11 12 13 13 13 11
14 14 13 13 12 11 9 8 9 10 10 9 8 8 8 7 7 7 7 8 8 8 8 7 9 10 12 14 14 15 15 16 17 17 17 17 18 17 17 15 16 16 16 15 15 13 13 14 12 11 9 8 10 10 10 11 11 11 12 14 11 9 8 9 10 11 11 10 11
14 14 13 14 15 15 13 10 10 11 11 9 9 9 9 8 7 7 7 8 9 9 9 8 9 10 12 13 14 15 15 16 17 17 17 17 18 18 18 16 17 17 16 15 15 15 15 15 12 10 10 10 11 11 10 10 12 11 10 11 9 9 8 8 9 9 8 8 10
14 14 13 13 15 15 14 12 12 12 11 9 8 8 8 8 7 7 8 8 9 9 10 10 10 10 11 13 15 16 17 18 18 17 17 17 18 18 18 18 17 17 16 16 16 16 16 17 12 10 9 10 10 10 10 11 12 11 10 8 8 8 8 8 8 8 8 8 8
13 13 13 13 14 14 13 12 13 12 11 9 9 10 9 8 7 8 8 9 9 11 12 12 11 11 12 13 15 16 16 17 17 17 17 17 17 18 18 18 18 17 16 16 17 17 17 17 11 9 9 9 9 10 11 13 12 11 10 9 9 8 8 9 8 8 8 9 9
13 13 14 14 14 14 13 12 12 12 11 10 12 13 12 10 10 10 11 10 10 10 11 11 12 12 12 13 14 14 15 15 15 16 17 17 17 18 18 18 18 18 17 17 18 18 17 16 11 9 9 9 9 10 13 13 12 11 11 10 9 9 9 9 8 8 9 11 12
12 13 13 13 13 13 14 14 12 12 11 11 12 14 15 14 13 13 12 11 10 10 10 10 11 12 12 12 13 14 14 15 15 16 16 16 17 18 18 18 18 18 19 18 18 18 17 14 11 10 10 9 9 10 13 14 13 13 12 12 10 9 8 8 7 8 9 12 14
11 11 12 12 12 13 13 13 13 13 13 12 14 14 15 15 15 14 13 12 11 11 11 10 12 13 13 13 13 13 13 14 14 15 15 16 17 18 18 17 18 19 19 18 19 19 18 14 11 10 10 9 9 10 12 15 15 14 13 12 11 10 9 9 9 10 11 12 14
11 11 11 11 12 12 12 13 13 14 15 15 15 15 15 15 14 14 13 11 11 12 12 12 12 13 14 14 14 13 13 12 13 14 14 15 16 17 17 16 18 18 18 18 18 19 18 15 13 12 11 10 11 12 13 15 16 15 14 11 11 11 12 11 12 12 13 13 14
12 12 11 11 12 12 12 12 12 13 14 15 15 15 14 14 14 13 12 11 12 14 15 14 14 14 14 13 13 13 12 12 12 13 14 15 15 16 16 15 17 18 18 18 17 17 16 15 14 14 14 13 13 13 14 16 16 16 15 11 12 13 13 13 13 13 13 14 14
12 12 12 11 11 11 11 12 11 12 13 14 14 14 14 13 14 14 13 13 14 15 15 14 14 14 13 12 12 12 13 13 13 13 14 15 15 15 15 15 16 17 18 18 17 15 14 15 15 16 16 16 13 13 14 17 17 17 16 14 13 13 14 14 14 13 12 13 14
12 12 11 11 11 11 11 11 10 10 11 13 13 13 13 13 14 14 14 15 15 14 13 13 13 13 13 11 12 12 12 13 14 14 14 15 15 15 15 15 15 16 17 17 16 15 14 15 16 17 17 17 14 13 14 17 17 17 17 16 15 14 14 15 15 14 13 14 14
11 11 11 10 10 10 9 9 9 9 10 12 12 12 12 12 13 13 13 14 14 13 12 12 12 12 12 12 12 12 13 14 14 15 15 15 15 15 15 15 15 16 16 15 15 15 15 15 16 17 17 18 16 15 16 17 17 17 17 17 16 16 16 16 16 15 15 15 15
11 11 10 10 10 9 8 8 8 8 9 11 11 11 11 11 11 12 12 13 13 12 11 11 11 11 12 12 13 13 14 14 15 16 16 16 16 16 16 15 15 15 15 14 15 15 16 16 16 17 17 18 17 16 16 17 17 17 17 17 17 17 16 16 16 16 15 16 15
10 10 10 9 9 9 9 8 7 8 9 10 10 10 10 10 10 11 12 12 12 11 11 12 11 11 11 12 13 14 14 15 15 16 16 16 16 16 16 16 16 16 16 15 15 15 15 15 15 16 17 17 17 17 17 17 17 17 17 17 17 17 17 17 16 16 16 16 16
10 10 9 9 10 10 10 9 8 8 9 10 10 10 10 10 9 10 11 11 11 11 11 12 12 11 11 12 13 13 14 14 15 15 15 15 16 16 16 16 16 16 17 17 16 16 16 15 15 16 16 17 17 16 17 17 17 17 17 17 17 17 17 17 17 16 16 17 17
10 10 9 10 11 11 11 11 10 10 10 10 10 10 9 9 9 10 10 11 11 12 12 13 12 12 12 12 12 12 13 13 14 15 15 14 15 15 16 16 16 17 17 17 18 17 17 17 16 16 16 16 16 16 16 16 16 17 17 17 17 17 17 16 16 16 16 16 17
11 10 10 10 11 11 12 12 12 12 11 11 10 10 10 10 10 10 10 11 12 12 13 13 12 12 12 13 12 12 13 13 14 14 14 14 14 15 15 16 15 16 17 17 18 18 18 17 17 17 16 16 16 16 16 16 16 16 17 17 17 16 16 16 16 15 15 16 16
11 10 10 10 10 11 11 12 12 12 12 11 11 11 11 11 11 11 11 12 12 12 13 13 13 13 13 13 13 13 13 12 13 14 14 14 14 14 15 15 14 15 15 16 16 16 17 17 17 17 17 17 17 16 16 16 15 16 15 15 15 15 15 15 15 15 15 16 16
11 11 10 10 10 10 11 11 11 12 12 12 12 12 12 11 11 11 12 12 12 12 13 13 13 13 13 13 13 13 13 11 12 13 14 14 14 14 14 14 14 14 14 14 15 15 16 16 17 17 17 17 17 17 16 16 15 15 15 14 14 15 15 15 15 16 16 16 16
11 11 10 10 10 10 10 11 11 11 11 12 12 12 12 11 11 11 11 11 12 13 13 14 14 14 14 13 13 13 13 12 12 13 13 13 13 13 13 13 13 13 14 15 15 15 15 16 16 16 16 16 16 16 16 16 16 16 16 15 15 15 15 16 16 16 16 16 16
11 11 10 9 10 10 11 11 11 11 11 10 11 11 11 11 11 11 11 11 12 13 13 13 13 13 13 13 13 13 13 13 13 13 13 13 13 13 13 12 13 14 14 14 14 14 15 15 15 16 16 15 16 16 17 17 16 16 16 16 16 15 15 15 16 16 16 16 16
12 11 9 8 9 10 10 11 11 11 11 10 10 11 11 12 11 11 11 11 12 12 12 11 11 12 12 12 12 13 13 14 14 14 14 14 14 13 13 12 13 14 14 13 14 15 15 13 13 14 15 15 15 15 16 16 16 15 15 16 16 15 15 15 16 16 16 16 16
12 11 10 10 10 10 10 10 11 11 10 10 10 10 11 12 12 11 11 12 12 12 12 11 11 11 11 12 13 13 14 14 15 14 15 15 15 14 13 12 12 12 11 12 17 21 21 18 15 14 13 14 14 14 14 15 15 15 14 15 15 15 15 16 16 16 16 16 15
12 12 11 11 11 10 10 11 11 11 11 10 10 11 12 12 12 12 12 13 13 13 12 12 12 12 12 12 13 14 14 14 14 15 15 15 15 14 14 12 11 10 10 13 20 25 26 26 23 19 15 13 13 13 13 14 14 15 14 14 15 15 15 15 16 16 17 16 16
13 13 13 12 11 11 11 11 11 12 12 12 12 12 12 12 11 12 13 13 13 12 12 11 12 12 13 12 13 14 14 14 14 14 15 15 15 15 14 13 11 10 11 16 22 26 28 29 29 26 21 14 14 13 13 13 14 14 14 14 15 15 15 15 16 16 16 16 16
14 14 14 14 14 13 13 12 12 12 13 12 12 12 12 12 12 13 13 13 12 12 11 11 11 11 11 11 13 14 14 14 14 14 14 15 15 15 15 14 12 12 13 19 23 26 28 30 30 30 26 19 14 13 13 13 13 13 14 14 14 15 16 15 15 15 16 16 16
14 14 14 14 15 15 14 14 13 13 13 13 12 12 12 12 13 13 13 13 13 12 11 10 10 9 10 12 13 14 15 15 14 14 14 15 16 16 16 15 14 15 17 22 25 27 29 30 31 31 30 26 16 12 11 12 12 13 13 13 14 14 15 15 14 14 14 15 16
13 13 13 14 14 14 14 14 14 13 12 11 12 12 12 13 13 13 13 14 14 13 12 10 10 11 12 13 13 13 14 14 14 14 14 15 16 17 17 17 16 16 19 24 26 27 29 30 31 32 32 31 21 15 11 11 12 13 13 13 14 15 16 15 15 15 15 14 15
13 13 13 14 14 14 14 14 13 13 12 11 11 12 12 13 13 13 14 14 13 13 13 12 13 14 15 14 14 14 14 13 13 13 14 16 17 17 18 18 17 17 19 24 26 28 29 30 30 31 32 32 24 17 12 12 13 13 13 14 15 16 16 16 16 16 16 16 15
13 13 14 14 14 14 14 13 13 12 12 12 12 12 13 13 13 13 13 13 13 13 14 14 15 16 16 15 15 15 14 14 13 14 14 15 16 17 18 18 18 18 19 24 26 27 28 29 30 31 32 33 26 19 14 13 14 14 14 15 16 17 17 15 15 16 18 18 16
12 13 14 14 15 14 14 13 13 12 12 12 13 13 12 12 12 12 12 12 12 13 14 15 16 16 16 16 16 15 15 14 14 15 16 16 17 18 18 18 17 18 20 24 26 27 28 29 29 30 31 33 26 20 16 15 13 13 14 15 15 16 17 17 16 16 17 18 17
11 13 14 14 14 14 14 13 13 12 12 13 13 12 12 11 11 12 12 12 12 13 14 15 15 16 16 15 15 15 15 14 15 16 17 17 18 18 18 16 13 15 20 24 26 27 28 28 29 30 31 32 25 20 17 17 15 15 15 15 15 15 16 16 17 17 17 18 16
11 12 14 14 14 14 14 13 13 13 13 13 13 12 12 12 12 12 12 12 12 13 13 14 14 14 14 14 14 15 15 15 16 16 17 17 17 18 18 17 14 16 20 24 26 27 28 28 29 29 29 28 21 18 17 18 17 17 18 18 17 16 16 15 16 16 16 17 17
11 13 14 14 14 14 14 14 14 13 14 14 13 12 12 12 12 12 12 12 13 13 13 13 13 13 14 14 14 14 15 16 16 16 17 17 17 18 18 18 16 18 21 24 25 26 27 28 28 29 28 24 18 15 15 16 17 18 19 19 18 17 17 15 15 15 15 15 16
12 13 14 15 15 15 15 15 14 14 14 14 13 13 13 13 13 12 12 12 12 13 13 13 13 14 14 14 14 14 15 15 16 16 16 16 17 17 17 17 17 18 21 23 25 26 27 28 28 28 26 21 17 15 15 14 14 16 18 19 18 18 17 15 15 15 15 15 16
13 14 14 15 16 16 16 15 15 15 15 14 14 13 12 12 12 12 12 11 12 13 13 13 14 14 14 14 14 14 15 15 15 16 16 17 17 17 17 17 17 18 19 22 24 26 27 27 28 28 25 19 17 15 14 13 13 14 16 17 16 16 16 14 13 14 15 16 18
14 14 15 15 16 16 16 16 16 16 15 14 14 13 13 12 11 11 11 11 12 12 13 13 14 14 14 14 13 14 14 15 15 16 16 16 16 17 17 17 17 17 18 21 24 25 26 27 28 28 26 21 17 15 13 12 13 14 15 14 14 15 15 14 12 12 14 17 21
15 15 15 16 16 16 17 17 17 16 14 13 14 13 13 12 12 11 10 10 11 12 12 13 13 13 13 13 13 14 14 14 15 15 16 16 17 18 18 18 17 17 18 20 23 25 26 27 28 28 27 20 17 14 13 12 13 14 14 13 12 12 13 13 12 12 12 15 19
15 16 16 16 16 16 17 17 17 16 14 13 13 13 12 12 12 11 10 10 11 11 11 11 12 13 13 13 12 13 14 14 15 15 16 17 17 18 18 17 17 17 17 19 22 24 26 26 27 28 27 20 16 14 13 12 13 14 14 13 12 11 11 12 11 11 11 13 14
Wind_Direction
226 226 226 226 227 228 229 230 230 229 229 229 229 226 221 216 217 217 214 211 210 210 207 204 203 200 197 195 196 197 198 200 201 203 205 207 208 206 203 201 200 199 199 199 196 194 193 193 192 192 193 193 194 193 192 190 190 192 194 196 198 199 200 202 203 205 206 208 208
227 227 227 227 227 228 228 229 228 227 226 225 226 226 223 218 217 216 215 213 212 210 208 208 205 202 199 197 197 197 198 200 201 203 205 207 207 205 202 200 199 199 198 198 196 194 193 193 193 194 193 193 193 193 191 189 189 191 194 196 196 197 199 202 204 205 207 209 210
228 227 226 226 226 226 226 226 226 225 225 225 224 224 223 221 218 217 216 215 213 211 210 209 207 204 202 199 198 197 198 200 200 202 204 206 206 204 202 200 199 198 198 197 196 195 194 193 195 194 193 191 191 192 191 189 188 190 193 195 194 194 196 201 202 204 206 209 211
230 229 227 227 227 227 226 225 225 224 224 223 223 224 224 222 219 218 217 217 216 214 212 209 209 206 204 201 199 198 199 199 199 201 203 205 205 204 203 200 198 197 197 197 197 197 196 194 195 195 194 192 192 192 191 187 187 188 191 193 192 192 193 197 198 200 202 207 211
232 230 229 229 229 228 228 228 226 225 223 221 221 222 222 222 220 218 218 217 216 215 213 210 210 208 206 203 201 200 199 199 199 201 202 204 205 204 203 200 198 197 196 196 197 198 198 196 196 196 194 192 192 192 190 185 185 186 189 190 191 191 192 194 195 197 200 204 208
235 233 232 231 231 231 231 230 229 227 224 221 221 222 221 219 218 217 217 218 220 219 218 215 213 211 209 206 203 202 201 200 200 200 201 202 203 203 203 201 199 197 196 196 197 198 199 197 196 195 192 190 191 192 190 186 185 185 187 189 191 191 192 194 194 195 198 202 206
238 237 236 234 232 232 231 231 230 228 226 225 224 224 223 221 220 219 219 220 221 221 220 218 215 213 210 206 205 203 202 201 202 201 200 200 201 201 201 200 198 197 197 196 197 198 199 198 196 194 192 189 190 191 190 187 185 185 186 189 190 191 192 194 192 193 197 202 206
241 240 239 237 235 233 232 231 230 229 228 227 227 227 226 224 223 221 221 221 222 222 221 220 217 214 210 206 204 204 203 202 203 202 202 201 201 201 200 199 198 198 197 196 197 197 198 197 196 194 192 189 189 189 189 188 187 186 187 189 189 189 189 189 189 192 197 203 207
242 241 241 239 237 234 232 231 229 229 229 230 230 229 228 226 224 223 222 222 222 222 221 221 218 215 212 208 206 204 202 201 201 202 203 203 202 201 200 198 197 198 198 197 197 197 196 196 197 196 193 190 189 188 188 188 188 188 188 189 189 189 188 187 189 194 200 205 208
242 241 240 240 238 236 233 231 230 230 231 233 232 231 230 228 226 224 222 222 223 223 222 221 218 215 212 209 207 204 201 199 200 201 202 204 203 202 201 198 197 197 197 197 196 196 195 196 198 197 195 192 190 187 186 187 188 188 189 189 188 187 187 188 191 196 202 207 210
244 242 240 239 237 235 233 231 231 231 232 234 233 233 231 230 228 226 224 223 224 224 223 222 218 215 212 209 206 204 201 199 199 199 201 203 204 204 203 201 198 198 197 196 195 194 194 196 198 197 195 192 190 187 186 187 188 189 190 190 188 187 188 190 193 198 204 208 210
246 244 242 240 237 235 233 231 231 231 232 233 234 233 233 232 230 228 227 225 226 226 225 223 220 216 212 208 205 203 201 200 199 199 200 203 204 204 204 203 201 200 198 197 194 193 194 196 196 195 194 192 190 188 187 187 188 189 191 191 189 189 190 193 196 199 204 207 209
249 247 245 242 238 236 233 232 232 233 234 235 235 235 235 235 233 231 230 228 228 227 227 225 221 218 213 209 205 203 201 201 200 200 201 203 203 204 204 204 203 202 201 199 196 195 195 196 195 193 192 192 190 189 187 187 188 189 191 192 191 192 193 196 198 201 204 206 209
253 251 249 246 242 239 237 236 237 238 240 240 240 240 239 240 237 235 232 231 230 229 228 227 223 220 216 211 207 205 203 203 202 203 203 203 203 203 204 204 203 202 201 201 199 197 197 196 195 193 192 192 191 190 188 187 188 190 191 192 193 194 196 198 200 202 204 206 209
256 254 252 250 247 245 243 241 242 244 246 246 245 244 244 244 241 239 236 235 232 230 228 227 225 222 218 214 211 209 207 207 206 206 205 205 204 203 203 202 202 201 201 201 200 200 199 197 196 194 193 192 192 190 189 188 190 191 192 193 194 196 198 200 201 202 204 206 208
256 254 253 250 248 246 244 242 242 244 246 247 246 245 244 244 243 241 239 237 234 231 228 226 225 223 219 216 214 213 212 212 211 209 208 207 205 204 202 201 200 200 200 200 201 201 200 199 197 196 195 194 193 191 190 190 191 192 194 195 196 198 200 201 201 202 204 206 207
256 252 249 246 244 243 242 240 241 242 244 245 245 243 242 242 242 240 239 237 234 231 229 226 225 223 220 217 215 214 215 216 215 213 211 210 207 205 203 200 198 198 197 198 199 200 200 199 198 197 196 196 195 193 192 191 192 193 195 196 198 199 201 202 202 203 204 206 208
258 252 246 241 240 239 239 238 238 240 242 243 243 241 240 239 239 239 238 236 233 231 229 227 224 222 220 218 215 214 214 216 217 216 215 213 210 207 205 202 199 197 196 197 198 199 198 197 197 197 197 197 197 196 195 193 194 195 196 197 199 200 202 202 202 203 204 206 209
263 257 250 244 240 238 237 236 236 237 238 239 239 239 237 236 235 236 236 235 232 230 229 227 225 223 221 219 216 215 214 215 217 217 217 215 213 211 209 206 202 199 198 199 199 199 198 196 196 196 197 198 198 198 198 196 196 197 198 199 200 201 202 203 203 204 205 207 209
271 265 259 251 246 242 239 237 236 236 235 235 235 234 233 231 230 231 233 234 232 231 229 228 226 224 223 220 218 217 216 216 217 218 218 216 215 213 211 208 204 202 201 201 202 201 199 198 197 196 197 198 199 199 199 198 198 198 199 200 202 202 203 203 204 205 206 208 209
278 272 266 260 254 249 245 241 239 237 236 235 233 231 229 226 225 226 228 231 232 231 230 229 227 226 224 222 220 219 218 218 218 219 219 217 216 214 212 208 206 204 203 203 203 203 201 200 199 198 198 199 200 200 200 199 199 199 199 201 202 203 204 205 205 207 208 209 210
284 278 272 265 260 256 252 248 245 242 239 237 234 232 229 225 222 222 224 227 229 230 231 230 229 227 225 223 221 220 220 220 220 220 219 218 216 214 212 208 206 204 204 204 204 204 203 202 201 200 200 201 201 201 200 200 200 200 201 202 202 204 205 206 207 208 209 211 211
290 284 276 268 263 259 256 254 251 247 244 240 236 233 231 228 225 224 224 225 226 228 229 231 230 228 226 224 222 221 220 221 222 222 221 219 217 214 211 208 206 205 204 204 204 203 203 203 203 203 203 203 203 203 202 202 201 201 201 202 203 203 205 207 208 210 211 212 213
293 287 279 270 264 259 256 254 252 249 245 239 236 234 233 231 229 227 225 225 225 226 227 228 228 228 226 225 223 221 221 221 222 222 221 220 218 215 212 209 208 207 206 204 203 201 201 201 203 204 204 205 205 205 204 204 203 203 202 202 203 204 205 208 209 210 212 213 213
296 289 282 273 266 260 256 253 251 248 244 237 233 232 232 232 229 228 227 226 226 225 225 225 226 226 226 225 223 222 221 221 222 222 222 221 219 216 212 210 210 209 208 207 206 205 204 202 202 202 204 205 206 207 207 206 205 204 202 202 202 204 206 208 210 211 212 213 213
301 294 286 277 270 263 258 253 251 248 244 238 234 231 230 229 228 228 227 228 227 225 224 223 224 225 225 226 225 224 223 222 222 221 221 221 219 216 213 212 211 211 210 210 210 209 208 207 205 204 203 204 205 207 208 208 208 206 204 203 203 204 205 207 210 211 212 213 213
302 296 289 282 275 267 260 255 252 250 247 243 237 234 231 228 227 226 226 227 226 224 223 222 223 225 227 228 226 225 224 222 222 221 221 220 218 216 214 214 213 211 211 211 212 212 212 211 210 207 205 203 204 205 206 207 206 206 205 205 205 206 206 208 209 210 211 213 213
298 294 290 285 279 272 266 260 255 251 248 244 240 236 233 230 229 228 226 225 223 222 220 221 221 223 225 228 227 225 223 222 221 221 220 219 218 217 216 215 214 212 211 212 214 215 215 215 214 211 208 204 203 204 205 206 205 205 205 207 208 209 209 210 210 210 211 212 212
292 290 287 283 278 274 270 265 259 254 250 246 242 238 234 232 231 229 227 225 222 220 219 219 218 220 223 226 226 225 223 221 220 219 219 219 219 218 218 217 217 216 214 213 215 216 217 218 218 216 213 207 204 203 204 206 205 206 207 209 209 210 211 211 211 211 212 212 212
289 287 284 281 277 274 271 267 263 259 254 250 244 240 236 234 231 229 227 225 223 221 219 217 216 218 221 224 225 224 223 220 218 217 217 218 219 219 219 219 219 218 216 215 216 217 218 219 219 219 217 211 207 203 203 205 206 208 209 210 210 211 211 212 213 213 213 212 212
287 286 285 282 279 276 273 270 267 263 258 253 246 241 238 235 232 230 228 226 225 223 221 218 219 220 222 222 223 223 222 220 217 215 216 218 220 221 222 222 220 219 218 217 217 218 219 220 220 221 219 216 210 205 202 204 207 209 210 210 210 209 210 211 213 213 213 213 212
284 284 283 282 281 279 276 274 270 266 261 256 250 245 240 237 234 232 231 229 227 226 224 222 221 222 222 222 222 222 221 219 217 215 216 217 221 222 224 224 222 220 220 219 219 219 220 220 221 221 221 219 213 206 200 202 206 210 212 213 211 210 209 209 211 213 213 214 213
281 282 282 282 281 280 279 276 273 268 263 259 253 248 243 240 237 235 233 230 229 228 226 225 224 223 223 222 221 221 220 219 218 218 218 219 221 223 224 225 224 222 220 220 221 221 221 221 221 221 221 221 217 209 200 199 204 210 213 214 213 211 210 210 211 212 212 213 213
278 280 281 281 281 281 279 277 273 268 263 259 254 249 244 241 238 236 234 231 230 229 229 227 226 225 224 222 220 219 219 219 218 219 219 220 221 223 224 224 224 221 220 221 221 222 222 222 222 222 222 221 219 212 203 200 204 209 213 215 215 213 212 211 212 212 212 212 212
276 279 281 282 282 282 280 278 274 268 263 258 254 250 245 241 238 237 235 233 233 232 232 231 229 227 226 224 222 220 220 221 221 221 220 220 221 222 224 224 224 222 221 222 222 223 223 223 223 222 222 221 220 214 207 203 205 208 212 215 215 214 213 211 212 213 212 212 212
281 283 285 286 287 286 284 281 277 272 266 260 255 251 246 243 240 238 236 235 234 234 234 232 230 229 228 226 224 223 222 222 223 223 223 221 221 222 224 225 225 224 223 223 223 223 223 223 223 222 222 221 220 216 210 205 205 207 210 214 215 214 212 211 211 212 213 213 212
288 290 291 291 291 289 287 284 280 275 270 264 259 254 249 245 243 241 238 235 235 235 235 233 231 230 228 227 226 225 224 223 224 225 224 223 221 222 224 225 225 224 224 224 224 224 224 224 223 222 221 220 220 218 214 209 207 207 209 212 214 214 212 210 211 212 213 214 214
296 297 296 295 293 290 288 285 281 277 273 269 264 259 254 249 246 242 238 234 234 236 236 235 233 232 230 228 228 228 227 225 225 225 225 225 223 222 223 226 226 225 224 224 225 225 225 224 224 222 221 220 219 218 216 212 209 207 206 208 211 212 212 211 210 211 213 214 215
301 299 297 295 293 291 288 286 282 278 275 272 268 264 260 254 249 243 238 233 233 235 237 238 237 235 233 230 231 230 229 227 226 226 226 226 225 224 224 226 227 226 225 224 225 225 225 224 224 223 221 220 219 219 218 216 211 208 205 205 207 209 210 210 210 210 212 214 216
300 298 295 293 291 289 288 286 283 280 277 274 271 268 265 260 256 250 242 235 233 234 236 239 239 238 235 232 232 232 232 230 227 227 227 228 228 227 227 228 228 227 226 224 225 225 225 225 225 223 222 221 219 219 219 219 215 211 207 203 203 204 206 207 208 209 211 212 216
299 297 294 292 290 288 287 285 284 282 279 276 273 270 268 265 261 255 248 240 235 234 235 238 240 239 237 234 234 234 234 233 230 228 228 229 230 230 229 229 230 229 227 225 225 225 225 225 225 223 222 221 219 219 219 220 218 214 210 205 203 202 202 203 205 207 209 210 213